Total_Precipitation_Accumulation
1.29 1.49 1.80 2.20 2.45 2.73 2.94 3.15 3.26 3.24 3.32 3.54 3.54 3.37 3.16 2.94 2.58 2.38 2.34 2.28 2.19 2.19 2.11 1.95 2.02 2.16 2.04 1.91 1.98 2.04 2.03 1.95 1.83 1.76 1.56 1.40 1.27 1.14 0.90 0.75 0.73 0.75 0.80
1.04 1.23 1.50 1.81 2.11 2.39 2.76 2.98 3.17 3.33 3.21 3.09 3.21 3.27 3.24 3.10 2.87 2.64 2.55 2.37 2.25 2.20 2.21 2.19 2.14 2.24 2.23 2.13 2.07 2.13 2.21 2.14 2.11 2.06 1.95 1.71 1.52 1.26 1.00 0.83 0.76 0.76 0.81
0.88 1.04 1.26 1.50 1.79 2.07 2.41 2.69 2.91 3.17 3.30 3.24 3.35 3.40 3.36 3.20 2.97 2.71 2.56 2.42 2.34 2.28 2.20 2.23 2.28 2.29 2.33 2.25 2.17 2.15 2.20 2.24 2.17 2.10 2.19 1.89 1.52 1.28 1.13 0.94 0.83 0.80 0.82
0.78 0.93 1.09 1.30 1.55 1.85 2.09 2.33 2.66 2.93 3.18 3.32 3.25 3.16 3.12 2.91 2.71 2.67 2.77 2.68 2.47 2.34 2.30 2.24 2.24 2.30 2.29 2.25 2.29 2.32 2.21 2.23 2.25 2.20 2.03 1.79 1.50 1.40 1.28 1.12 1.01 0.92 0.87
0.76 0.85 0.99 1.15 1.35 1.65 1.91 2.07 2.32 2.62 2.82 2.86 2.89 2.92 2.90 2.85 2.78 2.81 2.81 2.79 2.57 2.35 2.28 2.27 2.23 2.21 2.23 2.24 2.28 2.34 2.38 2.29 2.22 2.17 2.10 1.99 1.73 1.51 1.46 1.32 1.20 1.18 1.04
0.81 0.88 0.98 1.11 1.19 1.36 1.63 1.87 1.96 2.18 2.41 2.48 2.55 2.64 2.57 2.60 2.63 2.65 2.73 2.78 2.63 2.38 2.24 2.22 2.17 2.14 2.13 2.14 2.22 2.31 2.39 2.37 2.25 2.13 1.99 1.94 1.85 1.67 1.60 1.46 1.27 1.27 1.17
0.96 1.02 1.03 1.15 1.20 1.29 1.36 1.60 1.76 1.84 2.02 2.23 2.35 2.34 2.40 2.42 2.44 2.41 2.48 2.67 2.72 2.45 2.24 2.18 2.18 2.15 2.09 2.12 2.25 2.36 2.37 2.39 2.32 2.23 2.11 1.98 1.82 1.74 1.75 1.72 1.51 1.36 1.21
1.10 1.14 1.15 1.29 1.36 1.38 1.39 1.47 1.56 1.56 1.65 1.86 2.06 2.12 2.22 2.22 2.17 2.12 2.11 2.20 2.37 2.45 2.38 2.31 2.27 2.26 2.22 2.17 2.19 2.21 2.24 2.29 2.26 2.18 2.10 2.01 1.88 1.85 1.85 1.85 1.92 1.81 1.50
1.16 1.25 1.29 1.35 1.33 1.31 1.40 1.47 1.53 1.49 1.43 1.49 1.63 1.77 1.90 1.94 1.88 1.85 1.82 1.87 1.96 2.12 2.29 2.33 2.28 2.21 2.19 2.17 2.17 2.12 2.05 2.11 2.13 2.09 2.03 1.93 1.79 1.79 1.80 1.80 1.91 2.08 1.90
1.05 1.17 1.20 1.20 1.24 1.26 1.32 1.44 1.50 1.55 1.46 1.42 1.45 1.53 1.60 1.63 1.63 1.63 1.63 1.61 1.66 1.71 1.87 2.06 2.14 2.13 2.10 2.07 2.10 2.07 1.97 2.00 1.93 1.88 1.90 1.87 1.75 1.67 1.68 1.73 1.80 1.90 1.98
0.91 0.96 0.97 1.02 1.08 1.13 1.24 1.38 1.48 1.50 1.41 1.44 1.45 1.41 1.44 1.54 1.52 1.45 1.46 1.51 1.51 1.50 1.58 1.71 1.83 1.90 1.94 1.96 1.97 1.92 1.89 1.89 1.86 1.80 1.75 1.71 1.68 1.72 1.68 1.67 1.73 1.80 1.88
0.85 0.84 0.83 0.80 0.80 0.86 0.98 1.09 1.21 1.25 1.26 1.31 1.40 1.33 1.30 1.44 1.49 1.40 1.34 1.37 1.40 1.31 1.32 1.39 1.48 1.55 1.61 1.64 1.69 1.72 1.71 1.71 1.72 1.69 1.68 1.64 1.62 1.61 1.62 1.67 1.69 1.71 1.73
0.69 0.66 0.66 0.69 0.66 0.68 0.77 0.90 1.00 1.08 1.17 1.21 1.26 1.23 1.20 1.26 1.32 1.35 1.33 1.30 1.35 1.31 1.23 1.20 1.25 1.29 1.34 1.39 1.41 1.44 1.48 1.49 1.50 1.54 1.58 1.57 1.62 1.66 1.61 1.59 1.57 1.53 1.53
0.53 0.50 0.50 0.51 0.52 0.56 0.66 0.75 0.81 0.89 1.04 1.11 1.11 1.08 1.09 1.09 1.10 1.14 1.18 1.17 1.17 1.22 1.25 1.15 1.08 1.11 1.17 1.23 1.29 1.32 1.34 1.37 1.41 1.44 1.47 1.49 1.53 1.54 1.55 1.59 1.57 1.52 1.51
0.39 0.37 0.38 0.39 0.41 0.42 0.48 0.59 0.71 0.79 0.93 1.06 1.09 1.07 1.03 0.99 0.98 1.00 0.98 0.99 1.02 1.08 1.15 1.15 1.08 1.04 1.06 1.12 1.18 1.22 1.27 1.28 1.33 1.35 1.37 1.43 1.55 1.60 1.58 1.56 1.55 1.59 1.69
0.35 0.31 0.29 0.29 0.32 0.35 0.38 0.47 0.60 0.70 0.81 0.94 1.01 1.03 1.02 0.97 0.95 0.93 0.92 0.90 0.93 1.00 1.08 1.13 1.14 1.13 1.14 1.36 1.36 1.27 1.26 1.28 1.29 1.29 1.26 1.28 1.36 1.38 1.45 1.49 1.48 1.58 1.74
0.34 0.32 0.30 0.28 0.28 0.30 0.37 0.47 0.57 0.62 0.68 0.76 0.84 0.90 0.91 0.93 0.92 0.91 0.95 1.00 1.02 1.05 1.13 1.19 1.23 1.23 1.30 1.44 1.37 1.35 1.23 1.21 1.22 1.20 1.18 1.15 1.14 1.19 1.10 1.20 1.28 1.32 1.47
0.29 0.29 0.30 0.29 0.28 0.29 0.35 0.45 0.58 0.66 0.73 0.79 0.82 0.82 0.86 0.91 0.94 1.01 1.08 1.17 1.23 1.24 1.30 1.37 1.39 1.39 1.40 1.42 1.35 1.37 1.18 1.09 1.05 1.00 0.95 0.94 0.91 0.94 1.02 1.08 1.16 1.09 1.06
0.30 0.31 0.32 0.34 0.33 0.35 0.37 0.43 0.57 0.67 0.74 0.82 0.88 0.89 0.96 1.04 1.09 1.18 1.25 1.28 1.36 1.35 1.31 1.31 1.31 1.29 1.27 1.27 1.22 1.21 1.07 1.00 0.93 0.85 0.80 0.80 0.78 0.93 1.10 1.12 1.16 1.01 0.90
0.33 0.34 0.34 0.33 0.36 0.41 0.44 0.52 0.64 0.74 0.84 0.92 1.02 1.03 1.06 1.12 1.15 1.18 1.16 1.14 1.14 1.12 1.07 1.04 1.01 0.99 0.96 1.00 1.01 1.04 0.98 0.94 0.84 0.77 0.74 0.82 0.82 0.98 1.11 1.06 1.09 1.05 0.88
0.43 0.43 0.43 0.46 0.51 0.57 0.63 0.72 0.82 0.95 1.02 1.03 1.09 1.07 1.03 1.05 1.03 0.98 0.92 0.86 0.82 0.78 0.76 0.75 0.73 0.70 0.70 0.74 0.79 0.89 0.93 0.98 0.93 0.83 0.75 0.73 0.90 1.01 1.09 1.07 0.99 1.04 1.06
0.40 0.45 0.51 0.54 0.57 0.66 0.77 0.86 0.96 1.02 0.98 0.94 0.92 0.87 0.77 0.74 0.71 0.70 0.71 0.69 0.67 0.68 0.67 0.64 0.63 0.58 0.56 0.61 0.66 0.76 0.88 0.96 0.98 0.90 0.77 0.77 0.95 1.00 1.01 1.00 1.03 1.13 1.14
0.30 0.34 0.42 0.47 0.48 0.54 0.61 0.68 0.70 0.68 0.66 0.66 0.66 0.64 0.60 0.58 0.58 0.59 0.62 0.65 0.64 0.66 0.65 0.63 0.65 0.63 0.57 0.60 0.69 0.74 0.84 0.93 0.91 0.87 0.90 0.94 0.98 0.95 0.90 0.94 1.03 1.04 0.99
0.26 0.28 0.30 0.35 0.37 0.38 0.42 0.45 0.46 0.46 0.50 0.54 0.57 0.59 0.59 0.56 0.56 0.58 0.59 0.64 0.68 0.70 0.68 0.67 0.67 0.65 0.62 0.62 0.68 0.78 0.85 0.91 0.93 0.92 0.91 0.89 0.88 0.90 0.89 0.88 0.89 0.91 0.97
0.25 0.27 0.33 0.37 0.40 0.39 0.41 0.42 0.45 0.49 0.52 0.54 0.58 0.62 0.64 0.62 0.60 0.60 0.62 0.67 0.72 0.81 0.90 0.87 0.82 0.82 0.78 0.73 0.88 0.98 0.99 1.01 1.05 1.08 0.99 0.88 0.84 0.87 0.86 0.83 0.83 0.88 0.98
0.26 0.27 0.30 0.36 0.41 0.41 0.41 0.43 0.47 0.54 0.57 0.57 0.58 0.61 0.65 0.66 0.65 0.61 0.61 0.66 0.70 0.75 0.79 0.81 0.84 0.81 0.83 0.86 0.92 0.95 0.99 1.06 1.14 1.19 1.04 0.88 0.83 0.84 0.84 0.85 0.87 0.89 0.96